This is the latest recevied weather packets stored in our database for station/object HS0TK-1. If no packets are shown the sender has not sent any weather packets the latest 10 day(s).
| Time | Temp. | Humidity | Pressure | Rain* | Wind** | Luminosity | Snow |
|---|---|---|---|---|---|---|---|
| 1777879643 | 32.22° C | 41% | 1007 hPa | - | - | 0 W/m² | - |
| 1777878711 | 32.22° C | 42% | 1008 hPa | - | - | 0 W/m² | - |
| 1777877782 | 32.22° C | 38% | 1008 hPa | - | - | 0 W/m² | - |
| 1777876836 | 32.22° C | 38% | 1008 hPa | - | - | 0 W/m² | - |
| 1777875908 | 32.22° C | 38% | 1009 hPa | - | - | 0 W/m² | - |
| 1777874980 | 32.78° C | 37% | 1009 hPa | - | - | 0 W/m² | - |
| 1777874031 | 32.78° C | 37% | 1009 hPa | - | - | 0 W/m² | - |
| 1777873101 | 34.44° C | 36% | 1009 hPa | - | - | 0 W/m² | - |
| 1777872174 | 34.44° C | 39% | 1009 hPa | - | - | 0 W/m² | - |
| 1777871249 | 35.56° C | 45% | 1010 hPa | - | - | 0 W/m² | - |
| 1777870320 | 36.67° C | 47% | 1010 hPa | - | - | 0 W/m² | - |
| 1777869393 | 36.11° C | 48% | 1010 hPa | - | - | 0 W/m² | - |
| 1777869330 | 36.11° C | 48% | 1010 hPa | - | - | 0 W/m² | - |
| 1777868402 | 36.11° C | 47% | 1010 hPa | - | - | 0 W/m² | - |
| 1777867475 | 35.56° C | 49% | 1010 hPa | - | - | 0 W/m² | - |
| 1777866547 | 35° C | 52% | 1010 hPa | - | - | 0 W/m² | - |
| 1777865618 | 35° C | 53% | 1010 hPa | - | - | 0 W/m² | - |
| 1777864692 | 35° C | 54% | 1011 hPa | - | - | 0 W/m² | - |
| 1777863763 | 34.44° C | 56% | 1011 hPa | - | - | 0 W/m² | - |
| 1777862837 | 34.44° C | 56% | 1011 hPa | - | - | 0 W/m² | - |
| 1777861908 | 33.89° C | 57% | 1011 hPa | - | - | 0 W/m² | - |
| 1777860976 | 33.89° C | 58% | 1011 hPa | - | - | 0 W/m² | - |
| 1777860031 | 33.33° C | 60% | 1011 hPa | - | - | 0 W/m² | - |
| 1777859102 | 32.78° C | 60% | 1011 hPa | - | - | 0 W/m² | - |
| 1777858173 | 32.78° C | 60% | 1011 hPa | - | - | 0 W/m² | - |
* Rain since midnight (hover to see other rain measurements)
** Current wind speed in m/s (hover to see current wind gust speed)